This demonstration page uses our WeatherBlox Daily Observations layout. Learn more.

Left ArrowRight Arrow

Hourly Observations for September 22, 2017

Temp ( °F °C ) Dew Point ( °F °C ) Humidity (%) Winds ( mph kmh ) Pressure ( in mb ) Visibility ( mi km ) Precip ( " mm )
12:51 am 00:51 Clear 73 22.8 38 3.3 28 28 E 5 7 29.63 1003 10 16.0934 0 0
1:51 am 01:51 Clear 68 20 38 3.3 33 33 Calm 29.65 1004 10 16.0934 0 0
2:51 am 02:51 Clear 65 18.3 38 3.3 37 37 Calm 29.66 1004 10 16.0934 0 0
3:51 am 03:51 Clear 64 17.8 39 3.9 40 40 ESE 5 7 29.66 1004 10 16.0934 0 0
4:51 am 04:51 Clear 63 17.2 39 3.9 41 41 NE 7 11 29.67 1005 10 16.0934 0 0
5:51 am 05:51 Clear 63 17.2 38 3.3 40 40 E 3 6 29.68 1005 10 16.0934 0 0
6:51 am 06:51 Sunny 70 21.1 41 5 35 35 Calm 29.69 1005 10 16.0934 0 0
7:51 am 07:51 Mostly Sunny 75 23.9 42 5.6 31 31 E 10 17 29.69 1005 10 16.0934 0 0
8:51 am 08:51 Mostly Sunny 80 26.7 42 5.6 26 26 SE 9 15 29.68 1005 10 16.0934 0 0
9:51 am 09:51 Mostly Cloudy 81 27.2 43 6.1 26 26 S 10 17 29.68 1005 10 16.0934 0 0
10:28 am 10:28 Mostly Cloudy 84 29 45 7 25 25 SSW 16 26 29.59 1002 10 16.0934 0 0
10:51 am 10:51 Mostly Cloudy 84 28.9 46 7.8 27 27 SSW 17 28 29.66 1004 10 16.0934 0 0
11:51 am 11:51 Mostly Cloudy 87 30.6 47 8.3 25 25 SSW 15 24 29.64 1004 10 16.0934 0 0
12:51 pm 12:51 Partly Cloudy 89 31.7 47 8.3 23 23 SW 9 15 29.61 1003 10 16.0934 0 0
1:51 pm 13:51 Mostly Sunny 88 31.1 47 8.3 24 24 VRB 6 9 29.61 1003 10 16.0934 0 0
2:51 pm 14:51 Mostly Sunny 87 30.6 47 8.3 25 25 NW 17 28 29.6 1002 10 16.0934 0 0.0254
3:51 pm 15:51 Mostly Sunny 90 32.2 45 7.2 21 21 NW 14 22 29.58 1002 10 16.0934 0 0
4:51 pm 16:51 Sunny 88 31.1 46 7.8 23 23 NNW 16 26 29.57 1001 10 16.0934 0 0
5:51 pm 17:51 Partly Cloudy 85 29.4 45 7.2 25 25 NW 15 24 29.58 1002 10 16.0934 0 0
6:51 pm 18:51 Mostly Clear 82 27.8 45 7.2 27 27 NW 10 17 29.57 1002 10 16.0934 0 0
7:51 pm 19:51 Mostly Clear 81 27.2 45 7.2 28 28 NNW 9 15 29.58 1002 10 16.0934 0 0
8:51 pm 20:51 Clear 81 27.2 44 6.7 27 27 NW 12 19 29.58 1002 10 16.0934 0 0
9:51 pm 21:51 Clear 79 26.1 43 6.1 28 28 NW 8 13 29.59 1002 10 16.0934 0 0
10:51 pm 22:51 Clear 76 24.4 44 6.7 32 32 SW 6 9 29.6 1002 10 16.0934 0 0
11:51 pm 23:51 Clear 73 22.8 44 6.7 35 35 NW 7 11 29.59 1002 10 16.0934 0 0

Powered by AerisWeather